Time,TemperatureF,DewpointF,PressureIn,WindDirection,WindDirectionDegrees,WindSpeedMPH,WindSpeedGustMPH,Humidity,HourlyPrecipIn,Conditions,Clouds,dailyrainin,SoftwareType,DateUTC
2013-03-12 00:06:00,61.2,29.0,29.66,North,356,0.0,-999.0,30,-99.99,,,0.00,weatherlink.com 1.10,2013-03-12 07:06:00,
2013-03-12 00:36:00,60.7,30.0,29.65,NW,308,0.0,-999.0,31,-99.99,,,0.00,weatherlink.com 1.10,2013-03-12 07:36:00,
2013-03-12 00:51:00,60.4,30.0,29.65,North,359,0.0,-999.0,32,-99.99,,,0.00,weatherlink.com 1.10,2013-03-12 07:51:00,
2013-03-12 02:06:00,59.2,30.0,29.64,NW,306,0.0,-999.0,33,-99.99,,,0.00,weatherlink.com 1.10,2013-03-12 09:06:00,
2013-03-12 02:21:00,58.4,29.0,29.64,NW,306,0.0,-999.0,33,-99.99,,,0.00,weatherlink.com 1.10,2013-03-12 09:21:00,
2013-03-12 02:36:00,58.6,31.0,29.64,NW,305,0.0,-999.0,35,-99.99,,,0.00,weatherlink.com 1.10,2013-03-12 09:36:00,
2013-03-12 02:51:00,57.8,30.0,29.63,NW,305,0.0,-999.0,35,-99.99,,,0.00,weatherlink.com 1.10,2013-03-12 09:51:00,
2013-03-12 03:06:00,57.5,30.0,29.63,NW,308,0.0,-999.0,35,-99.99,,,0.00,weatherlink.com 1.10,2013-03-12 10:06:00,
2013-03-12 03:21:00,57.6,29.0,29.63,NW,306,0.0,-999.0,34,-99.99,,,0.00,weatherlink.com 1.10,2013-03-12 10:21:00,
2013-03-12 03:36:00,58.1,27.0,29.62,NW,308,0.0,-999.0,31,-99.99,,,0.00,weatherlink.com 1.10,2013-03-12 10:36:00,
2013-03-12 03:51:00,58.4,28.0,29.62,North,354,0.0,-999.0,31,-99.99,,,0.00,weatherlink.com 1.10,2013-03-12 10:51:00,
2013-03-12 04:06:00,58.3,28.0,29.62,North,356,0.0,-999.0,31,-99.99,,,0.00,weatherlink.com 1.10,2013-03-12 11:06:00,
2013-03-12 04:21:00,57.5,29.0,29.62,NNW,343,0.0,-999.0,34,-99.99,,,0.00,weatherlink.com 1.10,2013-03-12 11:21:00,
2013-03-12 04:36:00,57.0,30.0,29.62,NNW,344,0.0,-999.0,36,-99.99,,,0.00,weatherlink.com 1.10,2013-03-12 11:36:00,
2013-03-12 04:51:00,56.5,29.0,29.62,North,356,0.0,-999.0,35,-99.99,,,0.00,weatherlink.com 1.10,2013-03-12 11:51:00,
2013-03-12 05:06:00,56.6,27.0,29.62,NW,305,0.0,-999.0,32,-99.99,,,0.00,weatherlink.com 1.10,2013-03-12 12:06:00,
2013-03-12 05:21:00,56.5,28.0,29.62,NW,305,0.0,-999.0,33,-99.99,,,0.00,weatherlink.com 1.10,2013-03-12 12:21:00,
2013-03-12 05:36:00,55.9,28.0,29.63,North,356,0.0,-999.0,35,-99.99,,,0.00,weatherlink.com 1.10,2013-03-12 12:36:00,
2013-03-12 05:51:00,56.3,30.0,29.63,NNW,339,0.0,-999.0,37,-99.99,,,0.00,weatherlink.com 1.10,2013-03-12 12:51:00,
2013-03-12 06:06:00,55.7,30.0,29.63,North,350,0.0,-999.0,38,-99.99,,,0.00,weatherlink.com 1.10,2013-03-12 13:06:00,
2013-03-12 06:21:00,54.8,27.0,29.63,North,349,0.0,-999.0,35,-99.99,,,0.00,weatherlink.com 1.10,2013-03-12 13:21:00,
2013-03-12 06:36:00,54.2,29.0,29.64,NNW,344,0.0,-999.0,38,-99.99,,,0.00,weatherlink.com 1.10,2013-03-12 13:36:00,
2013-03-12 06:51:00,54.1,30.0,29.64,NW,312,0.0,-999.0,40,-99.99,,,0.00,weatherlink.com 1.10,2013-03-12 13:51:00,
2013-03-12 07:06:00,54.2,31.0,29.65,NW,308,0.0,-999.0,41,-99.99,,,0.00,weatherlink.com 1.10,2013-03-12 14:06:00,
2013-03-12 07:21:00,54.7,26.0,29.65,NW,306,0.0,-999.0,33,-99.99,,,0.00,weatherlink.com 1.10,2013-03-12 14:21:00,
2013-03-12 07:36:00,56.0,28.0,29.66,NNW,335,0.0,-999.0,34,-99.99,,,0.00,weatherlink.com 1.10,2013-03-12 14:36:00,
2013-03-12 07:51:00,57.5,28.0,29.66,North,350,0.0,-999.0,32,-99.99,,,0.00,weatherlink.com 1.10,2013-03-12 14:51:00,
2013-03-12 08:06:00,58.3,29.0,29.67,North,357,0.0,-999.0,33,-99.99,,,0.00,weatherlink.com 1.10,2013-03-12 15:06:00,
2013-03-12 08:37:00,63.5,31.0,29.69,North,359,0.0,-999.0,30,-99.99,,,0.00,weatherlink.com 1.10,2013-03-12 15:37:00,
2013-03-12 08:52:00,65.3,32.0,29.70,North,359,0.0,-999.0,29,-99.99,,,0.00,weatherlink.com 1.10,2013-03-12 15:52:00,
2013-03-12 09:07:00,67.3,32.0,29.70,North,359,1.0,-999.0,27,-99.99,,,0.00,weatherlink.com 1.10,2013-03-12 16:07:00,
2013-03-12 09:22:00,69.6,31.0,29.70,North,359,5.0,-999.0,24,-99.99,,,0.00,weatherlink.com 1.10,2013-03-12 16:22:00,
2013-03-12 09:37:00,71.1,31.0,29.71,North,359,4.0,-999.0,23,-99.99,,,0.00,weatherlink.com 1.10,2013-03-12 16:37:00,
2013-03-12 09:52:00,71.8,31.0,29.71,North,359,2.0,-999.0,22,-99.99,,,0.00,weatherlink.com 1.10,2013-03-12 16:52:00,
2013-03-12 10:07:00,73.5,31.0,29.71,North,359,1.0,-999.0,21,-99.99,,,0.00,weatherlink.com 1.10,2013-03-12 17:07:00,
2013-03-12 10:22:00,74.0,28.0,29.71,North,357,2.0,-999.0,18,-99.99,,,0.00,weatherlink.com 1.10,2013-03-12 17:22:00,
2013-03-12 10:37:00,74.9,27.0,29.70,NNW,330,2.0,-999.0,17,-99.99,,,0.00,weatherlink.com 1.10,2013-03-12 17:37:00,
2013-03-12 10:52:00,77.0,26.0,29.70,North,357,2.0,-999.0,15,-99.99,,,0.00,weatherlink.com 1.10,2013-03-12 17:52:00,
2013-03-12 11:07:00,79.9,27.0,29.70,SSE,151,3.0,-999.0,14,-99.99,,,0.00,weatherlink.com 1.10,2013-03-12 18:07:00,
2013-03-12 11:22:00,80.9,26.0,29.70,North,356,0.0,-999.0,13,-99.99,,,0.00,weatherlink.com 1.10,2013-03-12 18:22:00,
2013-03-12 11:37:00,81.8,24.0,29.70,North,357,0.0,-999.0,12,-99.99,,,0.00,weatherlink.com 1.10,2013-03-12 18:37:00,
2013-03-12 11:52:00,82.8,25.0,29.69,East,99,1.0,-999.0,12,-99.99,,,0.00,weatherlink.com 1.10,2013-03-12 18:52:00,
2013-03-12 12:07:00,82.2,25.0,29.69,North,359,0.0,-999.0,12,-99.99,,,0.00,weatherlink.com 1.10,2013-03-12 19:07:00,
2013-03-12 12:22:00,83.2,25.0,29.69,NNW,330,0.0,-999.0,12,-99.99,,,0.00,weatherlink.com 1.10,2013-03-12 19:22:00,
2013-03-12 12:37:00,83.4,28.0,29.68,North,357,1.0,-999.0,13,-99.99,,,0.00,weatherlink.com 1.10,2013-03-12 19:37:00,
2013-03-12 12:52:00,84.5,24.0,29.68,North,357,0.0,-999.0,11,-99.99,,,0.00,weatherlink.com 1.10,2013-03-12 19:52:00,
2013-03-12 13:07:00,84.0,26.0,29.67,ESE,116,1.0,-999.0,12,-99.99,,,0.00,weatherlink.com 1.10,2013-03-12 20:07:00,
2013-03-12 13:22:00,84.1,26.0,29.66,North,353,4.0,-999.0,12,-99.99,,,0.00,weatherlink.com 1.10,2013-03-12 20:22:00,
2013-03-12 13:37:00,84.9,25.0,29.65,North,356,4.0,-999.0,11,-99.99,,,0.00,weatherlink.com 1.10,2013-03-12 20:37:00,
2013-03-12 13:52:00,84.7,27.0,29.64,North,356,1.0,-999.0,12,-99.99,,,0.00,weatherlink.com 1.10,2013-03-12 20:52:00,
2013-03-12 14:07:00,86.7,26.0,29.64,North,357,0.0,-999.0,11,-99.99,,,0.00,weatherlink.com 1.10,2013-03-12 21:07:00,
2013-03-12 14:22:00,88.4,27.0,29.63,East,95,0.0,-999.0,11,-99.99,,,0.00,weatherlink.com 1.10,2013-03-12 21:22:00,
2013-03-12 14:37:00,89.0,30.0,29.63,SSE,162,5.0,-999.0,12,-99.99,,,0.00,weatherlink.com 1.10,2013-03-12 21:37:00,
2013-03-12 14:52:00,86.5,30.0,29.62,NW,316,3.0,-999.0,13,-99.99,,,0.00,weatherlink.com 1.10,2013-03-12 21:52:00,
2013-03-12 15:07:00,87.4,31.0,29.62,North,357,6.0,-999.0,13,-99.99,,,0.00,weatherlink.com 1.10,2013-03-12 22:07:00,
2013-03-12 15:22:00,87.0,30.0,29.61,North,354,2.0,-999.0,13,-99.99,,,0.00,weatherlink.com 1.10,2013-03-12 22:22:00,
2013-03-12 15:37:00,87.8,29.0,29.61,East,89,0.0,-999.0,12,-99.99,,,0.00,weatherlink.com 1.10,2013-03-12 22:37:00,
2013-03-12 15:52:00,88.2,29.0,29.60,SW,227,0.0,-999.0,12,-99.99,,,0.00,weatherlink.com 1.10,2013-03-12 22:52:00,
2013-03-12 16:07:00,90.3,31.0,29.60,North,357,0.0,-999.0,12,-99.99,,,0.00,weatherlink.com 1.10,2013-03-12 23:07:00,
2013-03-12 16:22:00,89.7,26.0,29.60,North,349,0.0,-999.0,10,-99.99,,,0.00,weatherlink.com 1.10,2013-03-12 23:22:00,
2013-03-12 16:37:00,91.2,27.0,29.60,North,354,0.0,-999.0,10,-99.99,,,0.00,weatherlink.com 1.10,2013-03-12 23:37:00,
2013-03-12 16:52:00,91.6,30.0,29.59,North,357,8.0,-999.0,11,-99.99,,,0.00,weatherlink.com 1.10,2013-03-12 23:52:00,
2013-03-12 17:07:00,90.3,27.0,29.59,North,357,0.0,-999.0,10,-99.99,,,0.00,weatherlink.com 1.10,2013-03-13 00:07:00,
2013-03-12 17:22:00,90.1,27.0,29.59,North,356,0.0,-999.0,10,-99.99,,,0.00,weatherlink.com 1.10,2013-03-13 00:22:00,
2013-03-12 17:37:00,88.8,30.0,29.59,North,356,0.0,-999.0,12,-99.99,,,0.00,weatherlink.com 1.10,2013-03-13 00:37:00,
2013-03-12 17:53:00,87.4,29.0,29.60,North,356,0.0,-999.0,12,-99.99,,,0.00,weatherlink.com 1.10,2013-03-13 00:53:00,
2013-03-12 18:08:00,86.7,28.0,29.60,North,356,0.0,-999.0,12,-99.99,,,0.00,weatherlink.com 1.10,2013-03-13 01:08:00,
2013-03-12 18:23:00,85.3,29.0,29.60,North,359,0.0,-999.0,13,-99.99,,,0.00,weatherlink.com 1.10,2013-03-13 01:23:00,
2013-03-12 18:38:00,83.4,28.0,29.61,NNW,344,0.0,-999.0,13,-99.99,,,0.00,weatherlink.com 1.10,2013-03-13 01:38:00,
2013-03-12 18:53:00,81.6,28.0,29.61,NNW,346,0.0,-999.0,14,-99.99,,,0.00,weatherlink.com 1.10,2013-03-13 01:53:00,
2013-03-12 19:08:00,80.3,27.0,29.61,North,359,0.0,-999.0,14,-99.99,,,0.00,weatherlink.com 1.10,2013-03-13 02:08:00,
2013-03-12 19:23:00,79.4,31.0,29.62,North,359,0.0,-999.0,17,-99.99,,,0.00,weatherlink.com 1.10,2013-03-13 02:23:00,
2013-03-12 19:38:00,77.9,30.0,29.62,North,359,0.0,-999.0,17,-99.99,,,0.00,weatherlink.com 1.10,2013-03-13 02:38:00,
2013-03-12 19:53:00,76.8,29.0,29.62,North,359,0.0,-999.0,17,-99.99,,,0.00,weatherlink.com 1.10,2013-03-13 02:53:00,
2013-03-12 20:08:00,76.5,30.0,29.62,North,359,0.0,-999.0,18,-99.99,,,0.00,weatherlink.com 1.10,2013-03-13 03:08:00,
2013-03-12 20:23:00,75.1,33.0,29.63,North,359,0.0,-999.0,21,-99.99,,,0.00,weatherlink.com 1.10,2013-03-13 03:23:00,
2013-03-12 20:38:00,73.7,31.0,29.63,North,359,0.0,-999.0,21,-99.99,,,0.00,weatherlink.com 1.10,2013-03-13 03:38:00,
2013-03-12 20:53:00,72.5,31.0,29.64,North,359,0.0,-999.0,22,-99.99,,,0.00,weatherlink.com 1.10,2013-03-13 03:53:00,
2013-03-12 21:08:00,72.1,30.0,29.64,North,359,0.0,-999.0,21,-99.99,,,0.00,weatherlink.com 1.10,2013-03-13 04:08:00,
2013-03-12 21:23:00,71.3,29.0,29.65,North,359,0.0,-999.0,21,-99.99,,,0.00,weatherlink.com 1.10,2013-03-13 04:23:00,
2013-03-12 21:38:00,70.6,30.0,29.65,North,359,0.0,-999.0,22,-99.99,,,0.00,weatherlink.com 1.10,2013-03-13 04:38:00,
2013-03-12 21:53:00,69.8,29.0,29.65,North,359,0.0,-999.0,22,-99.99,,,0.00,weatherlink.com 1.10,2013-03-13 04:53:00,
2013-03-12 22:08:00,69.6,29.0,29.66,North,359,0.0,-999.0,22,-99.99,,,0.00,weatherlink.com 1.10,2013-03-13 05:08:00,
2013-03-12 22:23:00,69.4,30.0,29.66,North,357,0.0,-999.0,23,-99.99,,,0.00,weatherlink.com 1.10,2013-03-13 05:23:00,
2013-03-12 22:38:00,68.6,30.0,29.66,North,357,0.0,-999.0,24,-99.99,,,0.00,weatherlink.com 1.10,2013-03-13 05:38:00,
2013-03-12 22:53:00,67.9,30.0,29.66,North,357,0.0,-999.0,24,-99.99,,,0.00,weatherlink.com 1.10,2013-03-13 05:53:00,
2013-03-12 23:08:00,67.6,30.0,29.66,North,357,0.0,-999.0,25,-99.99,,,0.00,weatherlink.com 1.10,2013-03-13 06:08:00,
2013-03-12 23:23:00,67.1,29.0,29.66,North,359,0.0,-999.0,24,-99.99,,,0.00,weatherlink.com 1.10,2013-03-13 06:23:00,
2013-03-12 23:38:00,66.9,30.0,29.66,North,359,0.0,-999.0,25,-99.99,,,0.00,weatherlink.com 1.10,2013-03-13 06:38:00,
2013-03-12 23:53:00,66.4,29.0,29.66,North,359,0.0,-999.0,25,-99.99,,,0.00,weatherlink.com 1.10,2013-03-13 06:53:00,